[[{"header":{"parameterUnit":"m.s-1","parameterCategory":1,"la1":30.2991,"la2":30.254,"lo1":-89.0895,"lo2":-89.0444,"dy":0.0017,"dx":0.0017,"nx":28,"ny":28,"refTime":"2024-08-09T21:00:00:Z","depth":0,"parameterNumber":2,"parameterNumberName":"U-component_of_WINDS"},"data":[0,0,0,0,0,0,0,0,0,0,0,0,0,0,0,0,0,0,0,0,0,0,0,0,0,0,0,0,0,0,0,0,0,0,0,0,0,0,0,0,0,0,0,0,0,0,0,0,0,0,0,0,0,0,0,0,0,0,-0.5147,-0.5148,0,-0.5257,-0.5258,-0.5259,-0.5293,-0.5293,-0.5292,-0.5292,-0.5405,-0.5409,-0.5412,0,0,0,0,0,0,0,0,0,0,0,0,0,-0.4965,-0.4968,-0.5147,-0.5148,-0.5149,-0.5257,-0.5258,-0.526,-0.5293,-0.5293,-0.5292,-0.5291,-0.5404,-0.5409,-0.5413,0,0,0,0,0,0,0,0,0,0,0,0,0,-0.5056,-0.4969,-0.5146,-0.5179,-0.5183,-0.5256,-0.5258,-0.526,-0.5294,-0.5293,-0.5292,-0.5291,-0.5403,-0.5408,-0.5413,-0.5462,0,0,-0.543,-0.5432,0,0,0,0,0,0,0,0,-0.5051,-0.5063,-0.5173,-0.5177,-0.5182,-0.526,-0.5236,-0.5328,-0.5294,-0.5252,-0.5292,-0.5291,-0.5358,-0.5367,-0.5389,-0.5468,-0.5473,-0.543,-0.5433,-0.5436,-0.5437,0,0,0,0,0,0,0,-0.5045,-0.5058,-0.519,-0.5174,-0.518,-0.5188,-0.52,-0.5254,-0.5308,-0.5255,-0.5258,-0.527,-0.536,-0.5384,-0.5392,-0.5474,-0.543,-0.5435,-0.5438,-0.544,-0.5597,-0.5598,0,0,0,0,0,0,-0.5033,-0.5053,-0.5187,-0.5194,-0.5113,-0.5192,-0.5206,-0.5236,-0.5308,-0.5318,-0.5271,-0.5272,-0.5376,-0.5386,-0.5396,-0.5458,-0.5435,-0.544,-0.5443,-0.5596,-0.5597,-0.5598,0,0,0,0,0,0,-0.5029,-0.5044,-0.5182,-0.5124,-0.5142,-0.5196,-0.523,-0.5239,-0.5263,-0.532,-0.5329,-0.5286,-0.5375,-0.5389,-0.5445,-0.5462,-0.5443,-0.5448,-0.5595,-0.5596,-0.5597,-0.5581,0,0,0,0,0,0,-0.5023,-0.5043,-0.5062,-0.5124,-0.5145,-0.5229,-0.5231,-0.5241,-0.5272,-0.5273,-0.5336,-0.5345,-0.5376,-0.5437,-0.5451,-0.5469,-0.5452,-0.5593,-0.5595,-0.5597,-0.558,-0.5582,-0.5583,0,0,0,0,0,-0.5017,-0.5054,-0.5063,-0.5079,-0.5171,-0.523,-0.5242,-0.5276,-0.5273,-0.5293,-0.5329,-0.5343,-0.5458,-0.5443,-0.5458,-0.5478,-0.5592,-0.5595,-0.5597,-0.558,-0.5581,-0.5583,0,0,0,0,0,0,-0.4993,-0.5062,-0.5074,-0.5132,-0.5175,-0.5236,-0.5262,-0.5277,-0.5323,-0.5323,-0.5363,-0.5377,-0.543,-0.546,-0.5442,-0.5529,-0.5526,-0.5531,-0.5507,-0.5509,-0.5511,-0.5502,-0.5456,0,0,0,0,0,-0.4994,-0.5037,-0.5095,-0.5141,-0.5162,-0.5208,-0.5235,-0.5258,-0.5304,-0.5323,-0.5363,-0.5408,-0.5454,-0.5483,-0.5529,-0.5584,-0.5598,-0.5606,-0.5607,-0.5608,-0.5612,-0.5642,-0.5646,-0.5605,-0.5605,-0.5605,0,0,-0.4998,-0.5041,-0.5066,-0.5137,-0.5173,-0.5216,-0.5223,-0.5269,-0.5301,-0.533,-0.5385,-0.5416,-0.5469,-0.5524,-0.5551,-0.5551,-0.5626,-0.5611,-0.5611,-0.5615,-0.5645,-0.5649,-0.5652,-0.5607,-0.5606,-0.5606,0,0,-0.5026,-0.5063,-0.5105,-0.514,-0.5194,-0.5225,-0.5234,-0.5293,-0.5315,-0.5371,-0.5392,-0.5431,-0.551,-0.5546,-0.5574,-0.5614,-0.5629,-0.5628,-0.5635,-0.5664,-0.5667,-0.567,-0.5684,-0.5688,-0.5632,-0.5632,-0.5632,0,-0.5024,-0.509,-0.5124,-0.5168,-0.5199,-0.5226,-0.5267,-0.53,-0.5367,-0.5387,-0.5386,-0.5484,-0.5521,-0.5585,-0.5594,-0.5617,-0.5629,-0.5621,-0.5664,-0.5667,-0.5671,-0.5684,-0.5689,-0.5631,-0.5631,-0.5631,-0.5632,0,-0.5084,-0.5129,-0.5156,-0.5218,-0.5251,-0.5294,-0.5335,-0.5364,-0.5383,-0.5413,-0.5469,-0.5514,-0.5569,-0.5586,-0.5605,-0.5652,-0.565,-0.5656,-0.5654,-0.5673,-0.5686,-0.5692,-0.5631,-0.5631,-0.5631,-0.5631,0,0,-0.5101,-0.5181,-0.519,-0.5218,-0.5279,-0.5314,-0.5358,-0.541,-0.5435,-0.5479,-0.5516,-0.5581,-0.5586,-0.5618,-0.5642,-0.5667,-0.5694,-0.567,-0.5672,-0.5672,-0.5748,-0.5742,-0.5748,-0.5704,-0.5705,-0.5706,-0.5743,0,-0.5137,-0.5216,-0.5247,-0.5311,-0.5352,-0.5377,-0.5415,-0.5456,-0.5485,-0.5524,-0.5556,-0.5601,-0.5605,-0.5624,-0.5651,-0.5685,-0.571,-0.5683,-0.5739,-0.574,-0.5724,-0.5755,-0.575,-0.5782,-0.5748,-0.5749,-0.575,0,-0.519,-0.5233,-0.53,-0.5355,-0.5373,-0.5407,-0.5456,-0.5494,-0.554,-0.5559,-0.5594,-0.5616,-0.5662,-0.5656,-0.5719,-0.57,-0.5725,-0.5745,-0.5747,-0.5753,-0.5746,-0.5761,-0.5794,-0.5798,-0.5758,-0.5758,-0.5757,0,-0.5195,-0.527,-0.532,-0.5343,-0.5408,-0.5431,-0.5459,-0.5504,-0.5533,-0.5577,-0.5596,-0.5645,-0.5671,-0.5708,-0.5741,-0.5734,-0.5801,-0.5798,-0.5818,-0.5817,-0.5831,-0.5829,-0.5867,-0.5847,-0.5847,-0.5847,-0.5847,0,-0.5231,-0.5271,-0.5323,-0.5354,-0.5399,-0.5434,-0.5478,-0.5508,-0.5548,-0.5584,-0.5609,-0.5643,-0.5685,-0.5724,-0.5751,-0.5798,-0.581,-0.5827,-0.5833,-0.5824,-0.5822,-0.5841,-0.5839,-0.5848,-0.5848,-0.5847,-0.5847,0,-0.5245,-0.5281,-0.5337,-0.5393,-0.5408,-0.5439,-0.5486,-0.5517,-0.5546,-0.5592,-0.5604,-0.565,-0.5697,-0.5734,-0.5796,-0.5813,-0.5863,-0.5871,-0.5847,-0.585,-0.5867,-0.5865,-0.5918,-0.5926,-0.5901,-0.5901,-0.5901,0,-0.5266,-0.5297,-0.5356,-0.5381,-0.5409,-0.5451,-0.548,-0.5516,-0.5545,-0.5599,-0.5623,-0.5671,-0.5712,-0.5785,-0.5824,-0.5871,-0.5879,-0.5894,-0.5887,-0.5876,-0.5879,-0.5876,-0.5879,-0.5895,-0.5895,-0.5896,-0.5896,0,-0.5298,-0.5314,-0.5356,-0.5403,-0.5437,-0.5476,-0.5515,-0.5535,-0.5578,-0.561,-0.5657,-0.5689,-0.575,-0.5798,-0.5848,-0.5877,-0.5893,-0.5898,-0.5904,-0.5896,-0.588,-0.5888,-0.5849,-0.5896,-0.5896,-0.5896,-0.5896,-0.5896,-0.5316,-0.5344,-0.539,-0.5434,-0.5467,-0.5503,-0.5534,-0.5566,-0.5607,-0.566,-0.5678,-0.5727,-0.5771,-0.584,-0.5869,-0.5907,-0.5908,-0.5918,-0.5921,-0.5923,-0.5921,-0.5874,-0.5917,-0.5917,-0.5917,-0.5917,-0.5917,0,-0.535,-0.5379,-0.542,-0.5474,-0.5509,-0.552,-0.5564,-0.5593,-0.5635,-0.5675,-0.5714,-0.5768,-0.5813,-0.5855,-0.5902,-0.5925,-0.5933,-0.5936,-0.5935,-0.5941,-0.5918,-0.5907,-0.5928,-0.5928,-0.5928,-0.5928,-0.5928,-0.5928,-0.5371,-0.5419,-0.544,-0.5504,-0.5534,-0.5582,-0.5606,-0.5638,-0.567,-0.5729,-0.5767,-0.5793,-0.5834,-0.5884,-0.5926,-0.5937,-0.5953,-0.5953,-0.5966,-0.5944,-0.5942,-0.5941,-0.5931,-0.5957,-0.5957,-0.5986,-0.5986,-0.5986]},{"header":{"parameterUnit":"m.s-1","parameterCategory":1,"la1":30.2991,"la2":30.254,"lo1":-89.0895,"lo2":-89.0444,"dy":0.0017,"dx":0.0017,"nx":28,"ny":28,"refTime":"2024-08-09T21:00:00:Z","depth":0,"parameterNumber":3,"parameterNumberName":"V-component_of_WINDS"},"data":[0,0,0,0,0,0,0,0,0,0,0,0,0,0,0,0,0,0,0,0,0,0,0,0,0,0,0,0,0,0,0,0,0,0,0,0,0,0,0,0,0,0,0,0,0,0,0,0,0,0,0,0,0,0,0,0,0,0,-2.5636,-2.5637,0,-2.5673,-2.5674,-2.5674,-2.5649,-2.5648,-2.5647,-2.5646,-2.568,-2.5682,-2.5684,0,0,0,0,0,0,0,0,0,0,0,0,0,-2.554,-2.5542,-2.5636,-2.5637,-2.5637,-2.5673,-2.5674,-2.5674,-2.5649,-2.5648,-2.5646,-2.5645,-2.568,-2.5682,-2.5684,0,0,0,0,0,0,0,0,0,0,0,0,0,-2.558,-2.5542,-2.5636,-2.5629,-2.5629,-2.5673,-2.5674,-2.5674,-2.565,-2.5648,-2.5646,-2.5645,-2.5679,-2.5682,-2.5685,-2.5737,0,0,-2.5694,-2.5695,0,0,0,0,0,0,0,0,-2.5578,-2.5583,-2.563,-2.563,-2.563,-2.5655,-2.5653,-2.5695,-2.565,-2.5642,-2.5646,-2.5644,-2.5673,-2.5676,-2.5687,-2.5739,-2.574,-2.5694,-2.5696,-2.5697,-2.5698,0,0,0,0,0,0,0,-2.5575,-2.5582,-2.5651,-2.563,-2.563,-2.5623,-2.5627,-2.5661,-2.5666,-2.5642,-2.564,-2.5645,-2.5673,-2.5684,-2.5688,-2.5741,-2.5694,-2.5697,-2.5698,-2.57,-2.5836,-2.5838,0,0,0,0,0,0,-2.5573,-2.5579,-2.565,-2.5652,-2.5599,-2.5626,-2.563,-2.5648,-2.5666,-2.5667,-2.5647,-2.5644,-2.568,-2.5684,-2.5689,-2.575,-2.5697,-2.57,-2.5702,-2.5834,-2.5836,-2.5838,0,0,0,0,0,0,-2.5571,-2.558,-2.5648,-2.5615,-2.5623,-2.5629,-2.565,-2.565,-2.5662,-2.5669,-2.567,-2.5658,-2.5679,-2.5685,-2.5725,-2.5751,-2.5701,-2.5704,-2.5832,-2.5835,-2.5837,-2.5874,0,0,0,0,0,0,-2.5569,-2.5579,-2.56,-2.5616,-2.5625,-2.5685,-2.5652,-2.5652,-2.5667,-2.5664,-2.568,-2.5681,-2.5678,-2.5721,-2.5728,-2.5754,-2.5706,-2.583,-2.5833,-2.5836,-2.5871,-2.5878,-2.5884,0,0,0,0,0,-2.5565,-2.5609,-2.5601,-2.561,-2.5652,-2.5687,-2.5692,-2.5689,-2.5669,-2.569,-2.5695,-2.568,-2.5747,-2.5725,-2.5733,-2.5761,-2.5828,-2.5832,-2.5836,-2.5868,-2.5877,-2.5884,0,0,0,0,0,0,-2.5594,-2.561,-2.5603,-2.5653,-2.5669,-2.5683,-2.5708,-2.5698,-2.5719,-2.5715,-2.5709,-2.5713,-2.5756,-2.5762,-2.5737,-2.5812,-2.5784,-2.579,-2.5806,-2.5814,-2.5821,-2.5818,-2.5709,0,0,0,0,0,-2.5607,-2.5635,-2.5647,-2.569,-2.5699,-2.5702,-2.5717,-2.5714,-2.5729,-2.5736,-2.5744,-2.5759,-2.5783,-2.5799,-2.5822,-2.5872,-2.5874,-2.5895,-2.5901,-2.5907,-2.5912,-2.5937,-2.5946,-2.5852,-2.5852,-2.5852,0,0,-2.5632,-2.5645,-2.5663,-2.5696,-2.5708,-2.5736,-2.5708,-2.5739,-2.576,-2.574,-2.5779,-2.5785,-2.5802,-2.5847,-2.5867,-2.5854,-2.5938,-2.5912,-2.5916,-2.5918,-2.5942,-2.5951,-2.5959,-2.5855,-2.5854,-2.5854,0,0,-2.5693,-2.5706,-2.5743,-2.5755,-2.5774,-2.5776,-2.5785,-2.5801,-2.5804,-2.5844,-2.5829,-2.5853,-2.5895,-2.5907,-2.5919,-2.5984,-2.5971,-2.5991,-2.6026,-2.6051,-2.6059,-2.6065,-2.6087,-2.6095,-2.5996,-2.5997,-2.5997,0,-2.5722,-2.5765,-2.5762,-2.5795,-2.5809,-2.5794,-2.583,-2.5842,-2.5867,-2.5877,-2.5862,-2.5915,-2.5924,-2.5972,-2.5988,-2.5998,-2.6007,-2.5989,-2.6058,-2.6065,-2.607,-2.6091,-2.61,-2.5999,-2.5999,-2.5998,-2.5998,0,-2.5799,-2.5829,-2.5857,-2.5882,-2.59,-2.5934,-2.5935,-2.5953,-2.5948,-2.5951,-2.599,-2.6002,-2.6026,-2.6037,-2.6032,-2.6084,-2.6075,-2.6059,-2.6031,-2.6082,-2.6101,-2.6109,-2.6002,-2.6001,-2.6001,-2.6,0,0,-2.5879,-2.5903,-2.5913,-2.5924,-2.5943,-2.5966,-2.5999,-2.6024,-2.6039,-2.6056,-2.6083,-2.6119,-2.6105,-2.6118,-2.6114,-2.6136,-2.6185,-2.6117,-2.6117,-2.6128,-2.6241,-2.6252,-2.6262,-2.6177,-2.6179,-2.618,-2.624,0,-2.594,-2.5999,-2.5997,-2.6051,-2.6078,-2.6064,-2.6092,-2.6106,-2.611,-2.6133,-2.6136,-2.6162,-2.6141,-2.6149,-2.6171,-2.6175,-2.6208,-2.617,-2.62,-2.6201,-2.6196,-2.6272,-2.6284,-2.634,-2.6247,-2.6249,-2.625,0,-2.6019,-2.6041,-2.6098,-2.6113,-2.6124,-2.615,-2.6172,-2.6194,-2.6209,-2.621,-2.6225,-2.6217,-2.6249,-2.6222,-2.6265,-2.6239,-2.6251,-2.6255,-2.6257,-2.6259,-2.6228,-2.6275,-2.6358,-2.6366,-2.6262,-2.6261,-2.626,0,-2.607,-2.6113,-2.6153,-2.6163,-2.6181,-2.62,-2.6208,-2.6222,-2.6237,-2.6256,-2.6265,-2.6288,-2.63,-2.6317,-2.6314,-2.6295,-2.6358,-2.633,-2.6358,-2.6358,-2.6371,-2.637,-2.6456,-2.6381,-2.6381,-2.6381,-2.6381,0,-2.6138,-2.6173,-2.6176,-2.62,-2.6238,-2.6235,-2.6273,-2.6279,-2.6292,-2.6316,-2.6305,-2.6327,-2.6324,-2.6346,-2.6344,-2.638,-2.6385,-2.6386,-2.6385,-2.6386,-2.6386,-2.6393,-2.6389,-2.6383,-2.6383,-2.6382,-2.6382,0,-2.6201,-2.6205,-2.6246,-2.6261,-2.6266,-2.6293,-2.6305,-2.6327,-2.633,-2.636,-2.6367,-2.6372,-2.6397,-2.6397,-2.6426,-2.6425,-2.6468,-2.6463,-2.6463,-2.6461,-2.6489,-2.6486,-2.6581,-2.6593,-2.6512,-2.6512,-2.6513,0,-2.6244,-2.6271,-2.6289,-2.6304,-2.6314,-2.634,-2.6355,-2.6353,-2.6369,-2.6389,-2.6408,-2.6433,-2.6452,-2.6494,-2.6498,-2.652,-2.6515,-2.6547,-2.6518,-2.6518,-2.6514,-2.6512,-2.6514,-2.6552,-2.6553,-2.6554,-2.6554,0,-2.6319,-2.6319,-2.6342,-2.6366,-2.6385,-2.6403,-2.642,-2.6433,-2.6433,-2.6451,-2.6478,-2.6493,-2.6523,-2.6547,-2.6568,-2.6575,-2.6564,-2.6564,-2.6571,-2.6572,-2.6571,-2.6571,-2.6477,-2.6561,-2.6561,-2.656,-2.656,-2.6559,-2.6372,-2.6395,-2.6411,-2.6437,-2.645,-2.6465,-2.6487,-2.6493,-2.6515,-2.654,-2.6537,-2.6566,-2.658,-2.6607,-2.6616,-2.6638,-2.6627,-2.6638,-2.664,-2.6643,-2.6645,-2.6568,-2.6642,-2.6642,-2.6642,-2.6641,-2.6641,0,-2.6445,-2.6455,-2.6479,-2.6503,-2.6523,-2.6513,-2.6531,-2.6548,-2.6574,-2.6589,-2.6608,-2.6638,-2.6661,-2.6668,-2.669,-2.6706,-2.6702,-2.6712,-2.671,-2.6712,-2.6655,-2.6646,-2.6715,-2.6715,-2.6715,-2.6715,-2.6715,-2.6715,-2.6486,-2.6524,-2.6526,-2.6569,-2.6578,-2.6607,-2.6618,-2.6632,-2.6644,-2.6678,-2.6698,-2.6702,-2.6713,-2.6736,-2.6757,-2.6758,-2.6766,-2.6778,-2.6777,-2.6723,-2.6716,-2.6709,-2.67,-2.678,-2.678,-2.6832,-2.6833,-2.6833]}]]